Tiempo cada hora Abaete

Hoy, 19 Junio, Sábado

Tiempo Temperatura Precipitaciones Viento Presión Humedad
00:00 +18°C° 0 mm 1 mps 710 mmHg 60%
01:00 +16°C° 0 mm 1 mps 710 mmHg 65%
02:00 +16°C° 0 mm 1 mps 710 mmHg 70%
03:00 +14°C° 0 mm 0 mps 710 mmHg 75%
04:00 +14°C° 0 mm 0 mps 710 mmHg 78%
05:00 +14°C° 0 mm 0 mps 710 mmHg 81%
06:00 +13°C° 0 mm 0 mps 710 mmHg 85%
07:00 +16°C° 0 mm 1 mps 711 mmHg 76%
08:00 +18°C° 0 mm 2 mps 712 mmHg 68%
09:00 +21°C° 0 mm 2 mps 712 mmHg 60%
10:00 +24°C° 0 mm 3 mps 712 mmHg 52%
11:00 +26°C° 0 mm 3 mps 712 mmHg 44%
12:00 +28°C° 0 mm 3 mps 711 mmHg 36%
13:00 +29°C° 0 mm 3 mps 711 mmHg 33%
14:00 +29°C° 0 mm 3 mps 710 mmHg 31%
15:00 +30°C° 0 mm 3 mps 709 mmHg 28%
16:00 +28°C° 0 mm 2 mps 709 mmHg 33%
17:00 +26°C° 0 mm 2 mps 709 mmHg 37%
18:00 +23°C° 0 mm 1 mps 709 mmHg 42%
19:00 +21°C° 0 mm 2 mps 709 mmHg 46%
20:00 +21°C° 0 mm 2 mps 710 mmHg 50%
21:00 +20°C° 0 mm 2 mps 710 mmHg 54%
22:00 +19°C° 0 mm 2 mps 710 mmHg 60%
23:00 +18°C° 0 mm 2 mps 710 mmHg 67%

Mañana, 20 Junio, Domingo

Tiempo Temperatura Precipitaciones Viento Presión Humedad
00:00 +17°C° 0 mm 2 mps 710 mmHg 73%
01:00 +16°C° 0 mm 2 mps 709 mmHg 75%
02:00 +16°C° 0 mm 1 mps 709 mmHg 77%
03:00 +15°C° 0 mm 1 mps 709 mmHg 80%
04:00 +15°C° 0 mm 1 mps 709 mmHg 81%
05:00 +14°C° 0 mm 1 mps 709 mmHg 82%
06:00 +14°C° 0 mm 1 mps 709 mmHg 83%
07:00 +16°C° 0 mm 2 mps 709 mmHg 74%
08:00 +19°C° 0 mm 2 mps 710 mmHg 65%
09:00 +21°C° 0 mm 3 mps 711 mmHg 56%
10:00 +25°C° 0 mm 3 mps 710 mmHg 49%
11:00 +27°C° 0 mm 4 mps 710 mmHg 42%
12:00 +29°C° 0 mm 4 mps 710 mmHg 35%
13:00 +30°C° 0 mm 4 mps 709 mmHg 32%
14:00 +32°C° 0 mm 4 mps 708 mmHg 30%
15:00 +33°C° 0 mm 3 mps 708 mmHg 27%
16:00 +30°C° 0 mm 3 mps 708 mmHg 31%
17:00 +28°C° 0 mm 2 mps 708 mmHg 35%
18:00 +26°C° 0 mm 2 mps 708 mmHg 40%
19:00 +24°C° 0 mm 2 mps 708 mmHg 43%
20:00 +23°C° 0 mm 1 mps 708 mmHg 47%
21:00 +22°C° 0 mm 1 mps 708 mmHg 50%
22:00 +22°C° 0 mm 1 mps 709 mmHg 51%
23:00 +21°C° 0 mm 1 mps 709 mmHg 52%

Pasado mañana, 21 Junio, Lunes

Tiempo Temperatura Precipitaciones Viento Presión Humedad
00:00 +21°C° 0 mm 1 mps 709 mmHg 53%
01:00 +20°C° 0 mm 1 mps 709 mmHg 54%
02:00 +20°C° 0 mm 1 mps 708 mmHg 56%
03:00 +19°C° 0 mm 1 mps 708 mmHg 57%
04:00 +19°C° 0 mm 1 mps 708 mmHg 59%
05:00 +18°C° 0 mm 1 mps 708 mmHg 61%
06:00 +18°C° 0 mm 1 mps 709 mmHg 63%
07:00 +20°C° 0 mm 1 mps 709 mmHg 56%
08:00 +22°C° 0 mm 1 mps 710 mmHg 50%
09:00 +25°C° 0 mm 1 mps 711 mmHg 44%
10:00 +27°C° 0 mm 1 mps 711 mmHg 39%
11:00 +29°C° 0 mm 1 mps 711 mmHg 35%
12:00 +31°C° 0 mm 1 mps 710 mmHg 30%
13:00 +32°C° 0 mm 1 mps 710 mmHg 29%
14:00 +32°C° 0 mm 1 mps 709 mmHg 28%
15:00 +32°C° 0 mm 1 mps 709 mmHg 26%
16:00 +30°C° 0 mm 1 mps 708 mmHg 31%
17:00 +28°C° 0 mm 1 mps 708 mmHg 35%
18:00 +25°C° 0 mm 2 mps 708 mmHg 40%
19:00 +25°C° 0 mm 1 mps 708 mmHg 42%
20:00 +24°C° 0 mm 1 mps 709 mmHg 44%
21:00 +21°C° 0 mm 0 mps 709 mmHg 47%
22:00 +20°C° 0 mm 0 mps 709 mmHg 48%
23:00 +20°C° 0 mm 0 mps 709 mmHg 50%

22 Junio, Martes

Tiempo Temperatura Precipitaciones Viento Presión Humedad
00:00 +19°C° 0 mm 0 mps 709 mmHg 52%
01:00 +19°C° 0 mm 0 mps 708 mmHg 53%
02:00 +18°C° 0 mm 0 mps 708 mmHg 55%
03:00 +18°C° 0 mm 0 mps 708 mmHg 56%
04:00 +17°C° 0 mm 0 mps 708 mmHg 57%
05:00 +17°C° 0 mm 0 mps 708 mmHg 58%
06:00 +17°C° 0 mm 0 mps 708 mmHg 59%
07:00 +19°C° 0 mm 0 mps 709 mmHg 53%
08:00 +21°C° 0 mm 0 mps 710 mmHg 47%
09:00 +25°C° 0 mm 1 mps 710 mmHg 41%
10:00 +28°C° 0 mm 1 mps 710 mmHg 36%
11:00 +30°C° 0 mm 1 mps 710 mmHg 31%
12:00 +32°C° 0 mm 2 mps 710 mmHg 27%
13:00 +34°C° 0 mm 2 mps 709 mmHg 25%
14:00 +34°C° 0 mm 2 mps 709 mmHg 24%
15:00 +34°C° 0 mm 1 mps 708 mmHg 23%
16:00 +32°C° 0 mm 1 mps 708 mmHg 26%
17:00 +29°C° 0 mm 2 mps 707 mmHg 30%
18:00 +27°C° 0 mm 2 mps 707 mmHg 34%
19:00 +27°C° 0 mm 1 mps 707 mmHg 36%
20:00 +26°C° 0 mm 1 mps 708 mmHg 38%
21:00 +25°C° 0 mm 1 mps 708 mmHg 39%
22:00 +24°C° 0 mm 1 mps 708 mmHg 41%
23:00 +24°C° 0 mm 1 mps 708 mmHg 44%

23 Junio, Miércoles

Tiempo Temperatura Precipitaciones Viento Presión Humedad
00:00 +23°C° 0 mm 1 mps 708 mmHg 46%
01:00 +22°C° 0 mm 1 mps 708 mmHg 49%
02:00 +22°C° 0 mm 1 mps 708 mmHg 53%
03:00 +20°C° 0 mm 2 mps 708 mmHg 56%
04:00 +19°C° 0 mm 2 mps 708 mmHg 60%
05:00 +19°C° 0 mm 2 mps 708 mmHg 64%
06:00 +18°C° 0 mm 2 mps 708 mmHg 68%
07:00 +20°C° 0 mm 2 mps 709 mmHg 64%
08:00 +23°C° 0 mm 2 mps 710 mmHg 59%
09:00 +25°C° 0 mm 3 mps 710 mmHg 55%
10:00 +27°C° 0 mm 3 mps 710 mmHg 49%
11:00 +29°C° 0 mm 2 mps 710 mmHg 43%
12:00 +31°C° 0 mm 2 mps 710 mmHg 38%
13:00 +32°C° 0 mm 2 mps 709 mmHg 35%
14:00 +32°C° 0 mm 1 mps 709 mmHg 33%
15:00 +33°C° 0 mm 1 mps 708 mmHg 31%
16:00 +31°C° 0 mm 1 mps 708 mmHg 35%
17:00 +29°C° 0 mm 1 mps 708 mmHg 40%
18:00 +27°C° 0 mm 1 mps 708 mmHg 44%
19:00 +25°C° 0 mm 2 mps 708 mmHg 50%
20:00 +24°C° 0 mm 2 mps 708 mmHg 57%
21:00 +22°C° 0 mm 3 mps 709 mmHg 63%
22:00 +21°C° 0 mm 3 mps 709 mmHg 69%
23:00 +20°C° 0 mm 2 mps 709 mmHg 76%

24 Junio, Jueves

Tiempo Temperatura Precipitaciones Viento Presión Humedad
00:00 +19°C° 0 mm 2 mps 709 mmHg 82%
01:00 +19°C° 0 mm 1 mps 709 mmHg 85%
02:00 +18°C° 0 mm 1 mps 709 mmHg 87%
03:00 +18°C° 0 mm 1 mps 709 mmHg 90%
04:00 +18°C° 0 mm 1 mps 709 mmHg 91%
05:00 +16°C° 0 mm 1 mps 709 mmHg 93%
06:00 +15°C° 0 mm 0 mps 709 mmHg 94%
07:00 +19°C° 0 mm 1 mps 709 mmHg 86%
08:00 +21°C° 0 mm 1 mps 710 mmHg 77%
09:00 +23°C° 0 mm 1 mps 711 mmHg 68%
10:00 +25°C° 0 mm 2 mps 710 mmHg 60%
11:00 +27°C° 0 mm 2 mps 710 mmHg 52%
12:00 +29°C° 0 mm 2 mps 710 mmHg 43%
13:00 +30°C° 0 mm 2 mps 709 mmHg 41%
14:00 +31°C° 0 mm 1 mps 708 mmHg 38%
15:00 +32°C° 0 mm 1 mps 708 mmHg 35%
16:00 +30°C° 0 mm 1 mps 708 mmHg 40%
17:00 +28°C° 0 mm 2 mps 707 mmHg 44%
18:00 +26°C° 0 mm 2 mps 707 mmHg 49%
19:00 +25°C° 0 mm 2 mps 707 mmHg 52%
20:00 +24°C° 0 mm 1 mps 708 mmHg 55%
21:00 +23°C° 0 mm 1 mps 708 mmHg 58%
22:00 +23°C° 0 mm 1 mps 708 mmHg 60%
23:00 +22°C° 0 mm 1 mps 708 mmHg 61%
Mostrar más

Necesitamos Su Consentimiento

Meteoprog y nuestros Proveedores de Servicios pueden almacenar y acceder a sus datos personales como cookies, identificadores de dispositivo u otras tecnologías similares de su dispositivo y procesar dichos datos para personalizar contenido y anuncios, además de ofrecer funciones de redes sociales y analizar el tráfico.

  • Almacenar y/o acceder a información en su dispositivo

    Se puede almacenar o acceder a cookies, identificadores de dispositivo u otra información de su dispositivo para los fines anteriormente indicados.

  • Anuncios y contenido personalizados, medición de anuncios y contenido, percepciones del público, y desarrollo de productos

    Los anuncios y el contenido pueden personalizarse en base a su perfil. Se pueden añadir más datos para personalizar mejor los anuncios y contenidos. Se puede medir el rendimiento de los anuncios y contenidos. Se puede obtener la percepción sobre el público que ha visto los anuncios y contenidos. Dichos datos pueden usarse para desarrollar o mejorar la experiencia del usuario, sistemas y software.

Al hacer clic en ‘Estoy De Acuerdo’ usted permitirá el uso de las cookies, identificadores de dispositivo, balizas web u otras tecnologías similares indicadas. Su configuración puede cambiarse desde el navegador de su dispositivo.

Para ciertos fines, los intereses legítimos pueden ser considerados por encima del consentimiento. Puede leer más sobre ello en nuestra Política de Privacidad y Cookies.